When you browse on this site, cookies collect data to enhance your experience and personalize the content and advertising you see.
Visit our Privacy Policy to learn more. By continuing to use the site, you agree to this use of cookies and data.
  • în România
  • Lista ţărilor
  • Pe 7 zile
  • Temperatura apei
  • Meteo pe hartă
  • Widget-uri
  • user-avatar
    Intrare

    Meteo pe oră la Wien

    Astăzi, 26 August, Luni

    Timp Temperatura Precipitaţii Vânt Presiune Umiditate
    00:00 +23°C° 0 mm 1 m/s 747 mmHg 73%
    01:00 +20°C° 0 mm 0 m/s 747 mmHg 76%
    02:00 +20°C° 0 mm 0 m/s 747 mmHg 77%
    03:00 +19°C° 0 mm 0 m/s 747 mmHg 78%
    04:00 +19°C° 0 mm 0 m/s 746 mmHg 80%
    05:00 +20°C° 0 mm 0 m/s 747 mmHg 77%
    06:00 +21°C° 0 mm 0 m/s 747 mmHg 74%
    07:00 +23°C° 0 mm 1 m/s 747 mmHg 72%
    08:00 +25°C° 0 mm 1 m/s 747 mmHg 65%
    09:00 +27°C° 0 mm 2 m/s 747 mmHg 58%
    10:00 +29°C° 0 mm 2 m/s 747 mmHg 51%
    11:00 +30°C° 0 mm 3 m/s 747 mmHg 47%
    12:00 +31°C° 0 mm 3 m/s 747 mmHg 44%
    13:00 +33°C° 0 mm 3 m/s 746 mmHg 40%
    14:00 +33°C° 0 mm 4 m/s 746 mmHg 40%
    15:00 +33°C° 0 mm 4 m/s 746 mmHg 40%
    16:00 +33°C° 0 mm 4 m/s 745 mmHg 40%
    17:00 +30°C° 0 mm 3 m/s 745 mmHg 45%
    18:00 +29°C° 0 mm 2 m/s 745 mmHg 49%
    19:00 +27°C° 0 mm 1 m/s 745 mmHg 54%
    20:00 +27°C° 0.2 mm 1 m/s 745 mmHg 57%
    21:00 +26°C° 0.2 mm 1 m/s 746 mmHg 60%
    22:00 +25°C° 0.2 mm 1 m/s 746 mmHg 63%
    23:00 +25°C° 0 mm 1 m/s 746 mmHg 65%

    Mâine, 27 August, Marţi

    Timp Temperatura Precipitaţii Vânt Presiune Umiditate
    00:00 +24°C° 0 mm 1 m/s 746 mmHg 68%
    01:00 +24°C° 0 mm 1 m/s 745 mmHg 70%
    02:00 +23°C° 0 mm 1 m/s 745 mmHg 72%
    03:00 +23°C° 0 mm 1 m/s 745 mmHg 74%
    04:00 +22°C° 0 mm 1 m/s 745 mmHg 76%
    05:00 +23°C° 0.1 mm 1 m/s 745 mmHg 75%
    06:00 +24°C° 0.1 mm 1 m/s 745 mmHg 73%
    07:00 +24°C° 0.1 mm 1 m/s 746 mmHg 71%
    08:00 +26°C° 0 mm 2 m/s 746 mmHg 65%
    09:00 +27°C° 0 mm 2 m/s 746 mmHg 60%
    10:00 +29°C° 0 mm 3 m/s 746 mmHg 54%
    11:00 +30°C° 0 mm 3 m/s 746 mmHg 51%
    12:00 +32°C° 0 mm 4 m/s 746 mmHg 47%
    13:00 +33°C° 0 mm 4 m/s 746 mmHg 44%
    14:00 +33°C° 0 mm 4 m/s 745 mmHg 44%
    15:00 +33°C° 0 mm 4 m/s 745 mmHg 43%
    16:00 +33°C° 0 mm 4 m/s 745 mmHg 43%
    17:00 +31°C° 0 mm 3 m/s 745 mmHg 48%
    18:00 +29°C° 0 mm 3 m/s 745 mmHg 53%
    19:00 +28°C° 0 mm 2 m/s 745 mmHg 58%
    20:00 +27°C° 0.1 mm 2 m/s 745 mmHg 61%
    21:00 +26°C° 0.1 mm 2 m/s 745 mmHg 64%
    22:00 +25°C° 0.1 mm 2 m/s 745 mmHg 67%
    23:00 +25°C° 0 mm 2 m/s 745 mmHg 69%

    Poimâine, 28 August, Miercuri

    Timp Temperatura Precipitaţii Vânt Presiune Umiditate
    00:00 +24°C° 0 mm 2 m/s 745 mmHg 70%
    01:00 +24°C° 0 mm 2 m/s 745 mmHg 72%
    02:00 +23°C° 0 mm 1 m/s 745 mmHg 73%
    03:00 +23°C° 0 mm 1 m/s 745 mmHg 75%
    04:00 +22°C° 0 mm 1 m/s 745 mmHg 76%
    05:00 +23°C° 0 mm 1 m/s 745 mmHg 73%
    06:00 +24°C° 0 mm 1 m/s 745 mmHg 71%
    07:00 +24°C° 0 mm 1 m/s 745 mmHg 68%
    08:00 +26°C° 0 mm 1 m/s 745 mmHg 61%
    09:00 +28°C° 0 mm 2 m/s 745 mmHg 55%
    10:00 +30°C° 0 mm 2 m/s 745 mmHg 49%
    11:00 +31°C° 0 mm 3 m/s 745 mmHg 45%
    12:00 +34°C° 0 mm 3 m/s 745 mmHg 40%
    13:00 +35°C° 0 mm 3 m/s 745 mmHg 36%
    14:00 +35°C° 0 mm 4 m/s 744 mmHg 36%
    15:00 +35°C° 0 mm 4 m/s 744 mmHg 35%
    16:00 +35°C° 0 mm 4 m/s 744 mmHg 34%
    17:00 +33°C° 0 mm 4 m/s 744 mmHg 40%
    18:00 +31°C° 0 mm 3 m/s 744 mmHg 45%
    19:00 +29°C° 0 mm 2 m/s 743 mmHg 51%
    20:00 +28°C° 0 mm 2 m/s 744 mmHg 53%
    21:00 +27°C° 0 mm 2 m/s 744 mmHg 56%
    22:00 +26°C° 0 mm 1 m/s 744 mmHg 59%
    23:00 +26°C° 0 mm 1 m/s 744 mmHg 60%

    29 August, Joi

    Timp Temperatura Precipitaţii Vânt Presiune Umiditate
    00:00 +25°C° 0 mm 1 m/s 744 mmHg 61%
    01:00 +25°C° 0 mm 1 m/s 744 mmHg 62%
    02:00 +24°C° 0 mm 1 m/s 744 mmHg 63%
    03:00 +24°C° 0 mm 1 m/s 743 mmHg 64%
    04:00 +23°C° 0 mm 1 m/s 743 mmHg 65%
    05:00 +24°C° 0 mm 1 m/s 743 mmHg 64%
    06:00 +24°C° 0 mm 1 m/s 743 mmHg 62%
    07:00 +25°C° 0 mm 1 m/s 743 mmHg 60%
    08:00 +27°C° 0 mm 1 m/s 743 mmHg 55%
    09:00 +29°C° 0 mm 1 m/s 744 mmHg 49%
    10:00 +31°C° 0 mm 1 m/s 744 mmHg 43%
    11:00 +32°C° 0 mm 2 m/s 744 mmHg 40%
    12:00 +34°C° 0 mm 2 m/s 744 mmHg 37%
    13:00 +35°C° 0 mm 2 m/s 743 mmHg 34%
    14:00 +35°C° 0 mm 2 m/s 743 mmHg 35%
    15:00 +35°C° 0 mm 3 m/s 743 mmHg 35%
    16:00 +35°C° 0 mm 3 m/s 743 mmHg 36%
    17:00 +31°C° 1 mm 2 m/s 743 mmHg 45%
    18:00 +29°C° 1 mm 2 m/s 743 mmHg 54%
    19:00 +27°C° 1 mm 2 m/s 743 mmHg 63%
    20:00 +26°C° 0.1 mm 1 m/s 743 mmHg 64%
    21:00 +26°C° 0.1 mm 1 m/s 744 mmHg 65%
    22:00 +26°C° 0.1 mm 1 m/s 744 mmHg 66%
    23:00 +25°C° 0.2 mm 1 m/s 744 mmHg 69%

    30 August, Vineri

    Timp Temperatura Precipitaţii Vânt Presiune Umiditate
    00:00 +24°C° 0.2 mm 1 m/s 744 mmHg 72%
    01:00 +24°C° 0.2 mm 2 m/s 744 mmHg 75%
    02:00 +23°C° 0.1 mm 2 m/s 744 mmHg 77%
    03:00 +23°C° 0.1 mm 2 m/s 744 mmHg 78%
    04:00 +23°C° 0.1 mm 2 m/s 744 mmHg 80%
    05:00 +23°C° 0.1 mm 2 m/s 744 mmHg 78%
    06:00 +24°C° 0.1 mm 2 m/s 744 mmHg 76%
    07:00 +24°C° 0.1 mm 2 m/s 745 mmHg 75%
    08:00 +26°C° 0 mm 3 m/s 745 mmHg 69%
    09:00 +27°C° 0 mm 3 m/s 745 mmHg 62%
    10:00 +29°C° 0 mm 3 m/s 745 mmHg 56%
    11:00 +30°C° 0 mm 3 m/s 745 mmHg 52%
    12:00 +31°C° 0 mm 2 m/s 745 mmHg 48%
    13:00 +32°C° 0 mm 2 m/s 745 mmHg 44%
    14:00 +32°C° 0.1 mm 2 m/s 745 mmHg 43%
    15:00 +32°C° 0.1 mm 1 m/s 744 mmHg 42%
    16:00 +32°C° 0.1 mm 1 m/s 744 mmHg 41%
    17:00 +29°C° 1.8 mm 2 m/s 744 mmHg 51%
    18:00 +26°C° 1.8 mm 3 m/s 744 mmHg 61%
    19:00 +24°C° 1.8 mm 3 m/s 744 mmHg 71%
    20:00 +22°C° 0.2 mm 3 m/s 744 mmHg 71%
    21:00 +23°C° 0.2 mm 2 m/s 744 mmHg 70%
    22:00 +23°C° 0.2 mm 1 m/s 744 mmHg 70%
    23:00 +23°C° 0 mm 1 m/s 744 mmHg 72%

    31 August, Sâmbătă

    Timp Temperatura Precipitaţii Vânt Presiune Umiditate
    00:00 +23°C° 0 mm 1 m/s 744 mmHg 73%
    01:00 +23°C° 0 mm 1 m/s 744 mmHg 75%
    02:00 +23°C° 0 mm 1 m/s 744 mmHg 76%
    03:00 +22°C° 0 mm 1 m/s 744 mmHg 78%
    04:00 +22°C° 0 mm 1 m/s 744 mmHg 79%
    05:00 +23°C° 0 mm 1 m/s 744 mmHg 78%
    06:00 +21°C° 0 mm 0 m/s 744 mmHg 78%
    07:00 +21°C° 0 mm 0 m/s 744 mmHg 77%
    08:00 +23°C° 0 mm 0 m/s 744 mmHg 71%
    09:00 +26°C° 0 mm 1 m/s 744 mmHg 64%
    10:00 +28°C° 0 mm 1 m/s 744 mmHg 58%
    11:00 +30°C° 0 mm 1 m/s 743 mmHg 51%
    12:00 +31°C° 0 mm 2 m/s 743 mmHg 44%
    13:00 +34°C° 0 mm 3 m/s 743 mmHg 37%
    14:00 +34°C° 0 mm 3 m/s 742 mmHg 34%
    15:00 +35°C° 0 mm 4 m/s 742 mmHg 32%
    16:00 +35°C° 0 mm 4 m/s 741 mmHg 29%
    17:00 +33°C° 0 mm 4 m/s 741 mmHg 34%
    18:00 +30°C° 0 mm 3 m/s 741 mmHg 39%
    19:00 +28°C° 0 mm 3 m/s 741 mmHg 44%
    20:00 +27°C° 0 mm 2 m/s 741 mmHg 47%
    21:00 +26°C° 0 mm 2 m/s 741 mmHg 49%
    22:00 +25°C° 0 mm 2 m/s 741 mmHg 52%
    23:00 +25°C° 0 mm 2 m/s 741 mmHg 54%
    Arată mai mult